Regional Weather Roundup
Issued by NWS

Home | Current Version | Previous Version | Graphics & Text | Print | Product List | Glossary On
Versions: 1 2 3 4 5 6 7 8 9 10 11 12 13 14 15 16 17 18 19 20 21 22 23 24 25 26 27 28 29 30 31 32 33 34 35 36 37 38 39 40 41 42 43 44 45 46 47 48 49 50
000
ASUS43 KBIS 261510
RWRND

NORTH DAKOTA REGIONAL WEATHER ROUNDUP
NATIONAL WEATHER SERVICE BISMARCK ND
900 AM CST SUN FEB 26 2017

NOTE: "FAIR" INDICATES FEW OR NO CLOUDS BELOW 12,000 FEET WITH NO
SIGNIFICANT WEATHER AND/OR OBSTRUCTIONS TO VISIBILITY.


NDZ001>003-009>011-017-261600-
NORTHWEST NORTH DAKOTA

CITY           SKY/WX    TMP DP  RH WIND       PRES   REMARKS
WILLISTON      LGT SNOW  13  10  88 NE5       29.72S FOG     WCI   5
MINOT          FLURRIES   5   1  83 SW9       29.75R WCI  -9
MINOT AFB      CLOUDY     4   0  84 W5        29.75R WCI  -6
$$

NDZ018>021-031>035-040>046-261600-
SOUTHWEST NORTH DAKOTA

CITY           SKY/WX    TMP DP  RH WIND       PRES   REMARKS
BISMARCK       CLOUDY    14   9  80 S6        29.78S WCI   5
DICKINSON      PTSUNNY   16  14  92 S7        29.65S WCI   6
GARRISON         N/A      8   5  87 CALM      29.74R
HETTINGER ARPT MOSUNNY   17  13  84 W5        29.71R WCI  10
$$

NDZ004>008-012>016-024-026-027-054-261600-
NORTHEAST NORTH DAKOTA

CITY           SKY/WX    TMP DP  RH WIND       PRES   REMARKS
GRAND FORKS    SUNNY      7  -2  66 W9        29.82R WCI  -7
GRND FRKS AFB  SUNNY      8   1  73 W7        29.82R WCI  -4
DEVILS LAKE    FAIR      -2  -6  84 W6        29.79R FOG     WCI -14
$$

NDZ022-023-025-028>030-036>039-047>053-261600-
SOUTHEAST NORTH DAKOTA

CITY           SKY/WX    TMP DP  RH WIND       PRES   REMARKS
FARGO          SUNNY     12   7  80 NW7       29.83R WCI   1
JAMESTOWN      FAIR      13   8  81 CALM      29.78R
$$




USA.gov is the U.S. government's official web portal to all federal, state and local government web resources and services.